Location: Gleizolles
(44.4833°N, 6.7667°E)
Time: 21:54:59
(UTC+00:00)

A-11 Canister half - Pass Details

Date: 03 July 2024
Orbit: 1524 x 1684 km, 47.3° (Epoch: 18 July)

Event Time Altitude Azimuth Distance (km) Brightness Sun altitude
Rises 07:34:58 0° 197° (SSW) 4,845 11.5 36.6°
Reaches altitude 10° 07:38:40 10° 187° (S) 3,837 11.2 37.2°
Maximum altitude 07:46:33 29° 132° (SE) 2,604 11.4 38.6°
Drops below altitude 10° 07:54:13 10° 78° (ENE) 3,747 12.1 40.0°
Sets 07:57:45 0° 67° (ENE) 4,714 12.2 40.6°
